Location: Lecco
(45.8566°N, 9.3977°E)
Time: 23:58:40
(UTC+02:00)

Explorer 7 - Visible Passes

Search period start: 18 July 2019 00:00
Search period end: 28 July 2019 00:00
Orbit: 485 x 680 km, 50.3° (Epoch: 17 July)

Date Brightness Start Highest point End Pass type
(mag) Time Alt. Az. Time Alt. Az. Time Alt. Az.
18 Jul 7.4 01:16:37 43° ENE 01:16:37 43° ENE 01:19:16 10° ENE visible
18 Jul 7.8 02:52:54 12° WNW 02:56:12 43° N 02:59:56 10° ENE visible
18 Jul 7.4 04:33:20 10° WNW 04:37:07 56° NNE 04:41:06 10° E visible
19 Jul 6.8 01:20:44 66° N 01:20:44 66° N 01:24:21 10° ENE visible
19 Jul 7.9 02:57:48 10° WNW 03:01:25 41° N 03:05:08 10° ENE visible
19 Jul 7.0 04:38:25 10° WNW 04:42:16 71° NNE 04:46:18 10° ESE visible
19 Jul 8.9 23:48:16 14° ENE 23:48:16 14° ENE 23:48:51 10° ENE visible
20 Jul 7.3 01:24:30 36° WNW 01:25:42 53° NNW 01:29:27 10° ENE visible
20 Jul 7.8 03:02:59 10° WNW 03:06:37 43° N 03:10:22 10° E visible
20 Jul 6.6 04:43:29 10° WNW 04:47:21 85° SSW 04:51:25 10° ESE visible
20 Jul 8.4 22:08:21 10° SSE 22:14:33 - E 22:09:45 13° SE visible
20 Jul 6.4 23:46:30 10° SW 23:50:27 67° SE 23:54:00 10° ENE visible
21 Jul 7.6 01:27:15 10° W 01:30:53 45° N 01:34:34 10° ENE visible
21 Jul 7.6 03:08:07 10° WNW 03:11:49 49° NNE 03:15:38 10° E visible
21 Jul 6.7 04:48:36 10° WNW 04:52:23 58° SSW 04:56:23 10° SE visible
21 Jul 7.8 22:12:11 10° S 22:15:10 22° SE 22:18:07 10° E visible
21 Jul 6.5 23:51:32 10° WSW 23:55:18 83° NNW 23:59:05 10° ENE visible
22 Jul 7.8 01:32:30 10° WNW 01:36:06 41° N 01:39:44 10° ENE visible
22 Jul 7.1 03:13:13 10° WNW 03:16:58 60° NNE 03:20:52 10° E visible
22 Jul 7.2 04:53:47 10° WNW 04:57:23 38° SW 05:01:09 10° SSE visible
22 Jul 7.2 22:16:36 10° SSW 22:20:05 34° SE 22:23:30 10° ENE visible
22 Jul 7.0 23:56:41 10° W 00:00:26 62° NNW 00:04:09 10° ENE visible
23 Jul 7.8 01:37:42 10° WNW 01:41:18 41° N 01:44:56 10° ENE visible
23 Jul 6.7 03:18:18 10° WNW 03:22:06 78° NNE 03:26:02 10° ESE visible
23 Jul 7.7 04:59:07 10° W 05:02:19 25° SW 05:05:39 10° SSE visible
23 Jul 6.7 22:21:19 10° SW 22:25:03 53° SSE 22:28:43 10° ENE visible
24 Jul 7.4 00:01:54 10° W 00:05:35 49° NNW 00:09:15 10° ENE visible
24 Jul 7.7 01:42:52 10° WNW 01:46:30 44° N 01:50:11 10° E visible
24 Jul 6.4 03:23:23 10° WNW 03:27:11 75° SSW 03:31:06 10° ESE visible
24 Jul 8.2 05:04:46 10° W 05:07:12 16° SW 05:09:42 10° S visible
24 Jul 6.5 22:26:15 10° WSW 22:30:05 79° SSE 22:33:50 10° ENE visible
25 Jul 7.7 00:07:09 10° W 00:10:46 43° N 00:14:24 10° ENE visible
25 Jul 7.4 01:48:00 10° WNW 01:51:41 51° NNE 01:53:10 31° ENE visible
25 Jul 8.4 03:28:30 10° WNW 03:34:41 19° SE 03:36:00 10° SE visible
25 Jul 6.7 22:31:20 10° WSW 22:35:09 75° NNW 22:38:55 10° ENE visible
26 Jul 7.8 00:12:22 10° WNW 00:15:58 41° N 00:19:21 11° ENE visible
26 Jul 7.7 01:53:05 10° WNW 01:55:35 38° NW 01:55:35 38° NW visible
26 Jul 7.2 22:36:31 10° W 22:40:17 57° NNW 22:44:00 10° ENE visible
27 Jul 7.8 00:17:34 10° WNW 00:21:10 41° N 00:23:08 22° ENE visible
27 Jul 8.6 01:58:09 10° WNW 01:59:24 20° WNW 01:59:24 20° WNW visible
27 Jul 7.6 22:41:45 10° W 22:45:27 47° N 22:49:06 10° ENE visible
